Tracking 19634 objects as of 23-May-2019
HD Live streaming from Space Station
objects crossing your sky now

COSMOS 371

Track COSMOS 371 now!
10-day predictions
COSMOS 371 is classified as:


NORAD ID: 4578
Int'l Code: 1970-083A
Perigee: 717.4 km
Apogee: 722.7 km
Inclination: 74.0 °
Period: 99.0 minutes
Semi major axis: 7091 km
RCS: 2.5963 m2 (large)
Launch date: October 12, 1970
Source: Commonwealth of Independent States (former USSR) (CIS)
Launch site: PLESETSK MISSILE AND SPACE COMPLEX (PKMTR)
aabbcc
Your satellite tracking list
Your tracking list is empty




NASA's NSSDC Master Catalog

Two Line Element Set (TLE):
1  4578U 70083A   19142.23787000  .00000026  00000-0  12870-4 0  9996
2  4578  74.0008  30.2746 0003759 274.1964  85.8768 14.53900994570518
Source of the keplerian elements: AFSPC